Location: Erfurt
(50.9688°N, 11.0193°E)
Time: 16:19:29
(UTC+01:00)

ISS - Pass Details

Date: 16 November 2017
Orbit: 402 x 407 km, 51.6° (Epoch: 22 November)

Event Time Altitude Azimuth Distance (km) Brightness Sun altitude
Exits shadow 05:38:09 20° 202° (SSW) 986 -2.0 -18.0°
Drops below altitude 10° 05:40:11 10° 164° (SSE) 1,450 -0.7 -17.7°
Sets 05:42:33 0° 148° (SSE) 2,305 0.6 -17.3°
